User: anonymous   Login
Location: Fort Wayne
(41.1310°N, 85.1290°W)
Time: 14:56:42
(UTC-04:00)
Language:

ISS - Orbit

View from above orbital plane
View from above orbital plane
View from above satellite
View from above satellite

Ground track
Ground track

The orbit data is extracted from the following two-line orbital elements,

1 25544U 98067A   15241.53526088  .00014703  00000-0  21728-3 0  9998
2 25544 051.6453 077.7928 0001561 100.1214 353.5697 15.55567517959455
Epoch (UTC): 29 August 2015 12:50:46
Eccentricity: 0.0001561
inclination: 51.6453°
perigee height: 399 km
apogee height: 401 km
right ascension of ascending node: 77.7928°
argument of perigee: 100.1214°
revolutions per day: 15.55567517
mean anomaly at epoch: 353.5697°
orbit number at epoch: 95945

The dashed part of the orbit path shows where the satellite is in the earth's shadow,  

DLR